Overview Statistics Trail Chart Weather Telemetry Raw packets
 

This is the latest recevied weather packets stored in our database for station/object N0QV. If no packets are shown the sender has not sent any weather packets the latest 10 day(s).

<< 18 19 20 21 22 23 24 >>
Time Temp. Humidity Pressure Rain* Wind** Luminosity Snow
1788542530 32.78° C 63% 1012.3 hPa 0 mm - 321 W/m² -
1788542225 32.78° C 64% 1012.1 hPa 0 mm - 190 W/m² -
1788541920 32.22° C 64% 1012 hPa 0 mm - 81 W/m² -
1788541617 32.78° C 64% 1012 hPa 0 mm - 195 W/m² -
1788541312 32.22° C 65% 1012 hPa 0 mm - 690 W/m² -
1788541011 32.22° C 65% 1012 hPa 0 mm - 687 W/m² -
1788540710 31.67° C 66% 1011.7 hPa 0 mm - 682 W/m² -
1788540406 31.67° C 65% 1011.7 hPa 0 mm - 706 W/m² -
1788540100 31.67° C 66% 1012.2 hPa 0 mm - 711 W/m² -
1788539797 31.67° C 67% 1011.8 hPa 0 mm - 709 W/m² -
1788539492 31.67° C 66% 1011.8 hPa 0 mm - 724 W/m² -
1788539192 31.67° C 65% 1011.6 hPa 0 mm - 702 W/m² -
1788538892 31.67° C 67% 1011.6 hPa 0 mm - 713 W/m² -
1788538588 31.67° C 67% 1011.7 hPa 0 mm - 677 W/m² -
1788538288 31.67° C 67% 1011.6 hPa 0 mm - 655 W/m² -
1788537984 31.67° C 67% 1011.7 hPa 0 mm - 674 W/m² -
1788537679 32.22° C 66% 1011.8 hPa 0 mm - 631 W/m² -
1788537374 31.67° C 67% 1011.6 hPa 0 mm - 603 W/m² -
1788537068 31.67° C 67% 1011.3 hPa 0 mm - 573 W/m² -
1788536762 31.11° C 66% 1011.7 hPa 0 mm - 593 W/m² -
1788536456 30° C 70% 1011.5 hPa 0 mm - 594 W/m² -
1788536156 30.56° C 71% 1011.4 hPa 0 mm - 498 W/m² -
1788535853 31.11° C 67% 1011.6 hPa 0 mm - 520 W/m² -
1788535548 30.56° C 68% 1011.4 hPa 0 mm - 548 W/m² -
1788535243 30° C 68% 1011.6 hPa 0 mm - 519 W/m² -

* Rain latest hour (hover to see other rain measurements)
** Current wind speed in m/s (hover to see current wind gust speed)